When you browse on this site, cookies collect data to enhance your experience and personalize the content and advertising you see.
Visit our Privacy Policy to learn more. By continuing to use the site, you agree to this use of cookies and data.

Previsão horária em Figueira da Foz

Hoje, 26 Setembro, Sábado

Tempo Temperatura Precipitação Vento Pressão Humidade
00:00 +14°C° 0 mm 6 m/s 768 mmHg 80%
01:00 +13°C° 0 mm 6 m/s 768 mmHg 80%
02:00 +13°C° 0 mm 6 m/s 767 mmHg 81%
03:00 +11°C° 0 mm 6 m/s 767 mmHg 81%
04:00 +11°C° 0 mm 6 m/s 767 mmHg 82%
05:00 +11°C° 0 mm 6 m/s 767 mmHg 82%
06:00 +14°C° 0 mm 6 m/s 767 mmHg 74%
07:00 +16°C° 0 mm 7 m/s 767 mmHg 67%
08:00 +17°C° 0 mm 7 m/s 767 mmHg 59%
09:00 +20°C° 0 mm 7 m/s 767 mmHg 57%
10:00 +21°C° 0 mm 7 m/s 767 mmHg 55%
11:00 +22°C° 0 mm 7 m/s 766 mmHg 53%
12:00 +22°C° 0 mm 7 m/s 766 mmHg 55%
13:00 +22°C° 0 mm 7 m/s 765 mmHg 57%
14:00 +21°C° 0 mm 7 m/s 765 mmHg 59%
15:00 +21°C° 0 mm 7 m/s 765 mmHg 64%
16:00 +20°C° 0 mm 7 m/s 765 mmHg 68%
17:00 +18°C° 0 mm 7 m/s 765 mmHg 72%
18:00 +17°C° 0 mm 6 m/s 765 mmHg 77%
19:00 +17°C° 0 mm 5 m/s 765 mmHg 83%
20:00 +16°C° 0 mm 5 m/s 765 mmHg 88%
21:00 +16°C° 0.1 mm 5 m/s 765 mmHg 90%
22:00 +16°C° 0.1 mm 5 m/s 764 mmHg 92%
23:00 +17°C° 0.1 mm 5 m/s 764 mmHg 93%

Amanhã, 27 Setembro, Domingo

Tempo Temperatura Precipitação Vento Pressão Humidade
00:00 +17°C° 0.1 mm 6 m/s 763 mmHg 92%
01:00 +17°C° 0.1 mm 6 m/s 763 mmHg 92%
02:00 +19°C° 0.1 mm 6 m/s 762 mmHg 91%
03:00 +17°C° 0 mm 6 m/s 762 mmHg 90%
04:00 +16°C° 0 mm 6 m/s 762 mmHg 90%
05:00 +16°C° 0 mm 6 m/s 762 mmHg 89%
06:00 +17°C° 0 mm 7 m/s 762 mmHg 83%
07:00 +18°C° 0 mm 7 m/s 762 mmHg 77%
08:00 +20°C° 0 mm 7 m/s 762 mmHg 72%
09:00 +21°C° 0 mm 7 m/s 762 mmHg 66%
10:00 +22°C° 0 mm 7 m/s 762 mmHg 61%
11:00 +23°C° 0 mm 7 m/s 762 mmHg 56%
12:00 +23°C° 0 mm 7 m/s 761 mmHg 56%
13:00 +23°C° 0 mm 8 m/s 761 mmHg 57%
14:00 +23°C° 0 mm 8 m/s 761 mmHg 57%
15:00 +22°C° 0 mm 8 m/s 761 mmHg 62%
16:00 +21°C° 0 mm 7 m/s 760 mmHg 67%
17:00 +18°C° 0 mm 7 m/s 760 mmHg 72%
18:00 +18°C° 0 mm 7 m/s 761 mmHg 75%
19:00 +17°C° 0 mm 6 m/s 761 mmHg 79%
20:00 +16°C° 0 mm 6 m/s 761 mmHg 83%
21:00 +16°C° 0 mm 6 m/s 761 mmHg 84%
22:00 +15°C° 0 mm 6 m/s 761 mmHg 86%
23:00 +15°C° 0 mm 5 m/s 761 mmHg 87%

Depois de amanhã, 28 Setembro, Segunda-feira

Tempo Temperatura Precipitação Vento Pressão Humidade
00:00 +14°C° 0 mm 5 m/s 761 mmHg 89%
01:00 +14°C° 0 mm 5 m/s 761 mmHg 91%
02:00 +14°C° 0 mm 5 m/s 761 mmHg 92%
03:00 +13°C° 0 mm 4 m/s 761 mmHg 92%
04:00 +13°C° 0 mm 4 m/s 761 mmHg 92%
05:00 +13°C° 0 mm 3 m/s 761 mmHg 93%
06:00 +16°C° 0 mm 3 m/s 761 mmHg 81%
07:00 +17°C° 0 mm 3 m/s 761 mmHg 69%
08:00 +19°C° 0 mm 2 m/s 761 mmHg 57%
09:00 +21°C° 0 mm 3 m/s 761 mmHg 50%
10:00 +25°C° 0 mm 3 m/s 761 mmHg 44%
11:00 +27°C° 0 mm 3 m/s 761 mmHg 37%
12:00 +26°C° 0 mm 3 m/s 760 mmHg 39%
13:00 +26°C° 0 mm 4 m/s 760 mmHg 42%
14:00 +25°C° 0 mm 5 m/s 760 mmHg 44%
15:00 +23°C° 0 mm 4 m/s 760 mmHg 48%
16:00 +21°C° 0 mm 4 m/s 760 mmHg 52%
17:00 +19°C° 0 mm 4 m/s 760 mmHg 56%
18:00 +19°C° 0 mm 4 m/s 760 mmHg 59%
19:00 +18°C° 0 mm 3 m/s 760 mmHg 61%
20:00 +17°C° 0 mm 3 m/s 760 mmHg 63%
21:00 +17°C° 0 mm 2 m/s 760 mmHg 63%
22:00 +17°C° 0 mm 2 m/s 760 mmHg 63%
23:00 +16°C° 0 mm 1 m/s 760 mmHg 63%

29 Setembro, Terça-feira

Tempo Temperatura Precipitação Vento Pressão Humidade
00:00 +16°C° 0 mm 1 m/s 760 mmHg 63%
01:00 +15°C° 0 mm 2 m/s 760 mmHg 64%
02:00 +15°C° 0 mm 2 m/s 760 mmHg 65%
03:00 +15°C° 0 mm 2 m/s 760 mmHg 64%
04:00 +14°C° 0 mm 2 m/s 759 mmHg 63%
05:00 +14°C° 0 mm 2 m/s 759 mmHg 63%
06:00 +17°C° 0 mm 2 m/s 760 mmHg 54%
07:00 +20°C° 0 mm 1 m/s 760 mmHg 46%
08:00 +23°C° 0 mm 1 m/s 760 mmHg 37%
09:00 +24°C° 0 mm 2 m/s 760 mmHg 36%
10:00 +26°C° 0 mm 3 m/s 760 mmHg 34%
11:00 +27°C° 0 mm 3 m/s 760 mmHg 33%
12:00 +26°C° 0 mm 4 m/s 760 mmHg 38%
13:00 +26°C° 0 mm 4 m/s 760 mmHg 44%
14:00 +25°C° 0 mm 5 m/s 760 mmHg 50%
15:00 +22°C° 0 mm 5 m/s 760 mmHg 58%
16:00 +20°C° 0 mm 5 m/s 760 mmHg 66%
17:00 +19°C° 0 mm 5 m/s 760 mmHg 74%
18:00 +17°C° 0 mm 5 m/s 761 mmHg 80%
19:00 +16°C° 0 mm 5 m/s 761 mmHg 86%
20:00 +15°C° 0 mm 4 m/s 762 mmHg 92%
21:00 +15°C° 0 mm 4 m/s 762 mmHg 93%
22:00 +14°C° 0 mm 4 m/s 762 mmHg 94%
23:00 +14°C° 0 mm 4 m/s 762 mmHg 95%

30 Setembro, Quarta-feira

Tempo Temperatura Precipitação Vento Pressão Humidade
00:00 +14°C° 0 mm 4 m/s 761 mmHg 95%
01:00 +14°C° 0 mm 4 m/s 761 mmHg 95%
02:00 +14°C° 0 mm 4 m/s 761 mmHg 95%
03:00 +14°C° 0 mm 4 m/s 761 mmHg 95%
04:00 +13°C° 0 mm 4 m/s 761 mmHg 95%
05:00 +13°C° 0 mm 3 m/s 761 mmHg 95%
06:00 +15°C° 0 mm 4 m/s 761 mmHg 88%
07:00 +18°C° 0 mm 4 m/s 761 mmHg 80%
08:00 +19°C° 0 mm 5 m/s 761 mmHg 73%
09:00 +21°C° 0 mm 5 m/s 761 mmHg 65%
10:00 +22°C° 0 mm 5 m/s 761 mmHg 57%
11:00 +23°C° 0 mm 5 m/s 761 mmHg 49%
12:00 +23°C° 0 mm 6 m/s 761 mmHg 52%
13:00 +23°C° 0 mm 6 m/s 761 mmHg 56%
14:00 +22°C° 0 mm 7 m/s 760 mmHg 59%
15:00 +21°C° 0 mm 7 m/s 760 mmHg 66%
16:00 +20°C° 0 mm 6 m/s 761 mmHg 73%
17:00 +19°C° 0 mm 6 m/s 761 mmHg 80%
18:00 +17°C° 0 mm 6 m/s 761 mmHg 84%
19:00 +16°C° 0 mm 5 m/s 761 mmHg 88%
20:00 +15°C° 0 mm 5 m/s 762 mmHg 92%
21:00 +15°C° 0 mm 5 m/s 762 mmHg 93%
22:00 +15°C° 0 mm 4 m/s 762 mmHg 94%
23:00 +14°C° 0 mm 4 m/s 762 mmHg 94%

1 Outubro, Quinta-feira

Tempo Temperatura Precipitação Vento Pressão Humidade
00:00 +15°C° 0 mm 4 m/s 761 mmHg 91%
01:00 +17°C° 0 mm 4 m/s 761 mmHg 88%
02:00 +17°C° 0 mm 4 m/s 761 mmHg 85%
03:00 +17°C° 0 mm 3 m/s 760 mmHg 86%
04:00 +17°C° 0 mm 2 m/s 760 mmHg 87%
05:00 +17°C° 0 mm 2 m/s 760 mmHg 89%
06:00 +18°C° 0.1 mm 2 m/s 760 mmHg 86%
07:00 +19°C° 0.1 mm 3 m/s 760 mmHg 84%
08:00 +20°C° 0.1 mm 4 m/s 760 mmHg 82%
09:00 +21°C° 0.1 mm 4 m/s 760 mmHg 78%
10:00 +22°C° 0.1 mm 5 m/s 760 mmHg 74%
11:00 +22°C° 0.1 mm 6 m/s 760 mmHg 69%
12:00 +22°C° 0 mm 6 m/s 760 mmHg 66%
13:00 +22°C° 0 mm 6 m/s 760 mmHg 62%
14:00 +22°C° 0 mm 6 m/s 760 mmHg 58%
15:00 +21°C° 0 mm 5 m/s 760 mmHg 63%
16:00 +19°C° 0 mm 5 m/s 760 mmHg 69%
17:00 +17°C° 0 mm 5 m/s 760 mmHg 74%
18:00 +16°C° 0 mm 5 m/s 760 mmHg 79%
19:00 +17°C° 0 mm 4 m/s 760 mmHg 85%
20:00 +16°C° 0 mm 3 m/s 761 mmHg 90%
21:00 +16°C° 0 mm 3 m/s 760 mmHg 89%
22:00 +16°C° 0 mm 3 m/s 760 mmHg 88%
23:00 +17°C° 0 mm 2 m/s 760 mmHg 87%
Mostrar mais